Regional Weather Roundup
Issued by NWS Upton, NY

Current Version | Previous Version | Text Only | Print | Product List | Glossary On
Versions: 1 2 3 4 5 6 7 8 9 10 11 12 13 14 15 16 17 18 19 20 21 22 23 24 25 26 27 28 29 30 31 32 33 34 35 36 37 38 39 40 41 42 43 44 45 46 47 48 49 50
000 ASUS41 KOKX 271405 RWROKX REGIONAL WEATHER ROUNDUP NATIONAL WEATHER SERVICE NEW YORK NY 900 AM EST THU NOV 27 2014 NOTE: "FAIR" INDICATES FEW OR NO CLOUDS BELOW 12,000 FEET WITH NO SIGNIFICANT WEATHER AND/OR OBSTRUCTIONS TO VISIBILITY. NYZ071-072-176-178-NJZ106-104-271500- NEW YORK CITY METRO AREA CITY SKY/WX TMP DP RH WIND PRES REMARKS CENTRAL PARK CLOUDY 37 30 75 VRB5 30.01R WCI 33 LAGUARDIA APRT CLOUDY 37 31 78 NW7 29.99R WCI 32 KENNEDY INTL PTSUNNY 38 31 76 NW9 30.00R WCI 31 NEWARK/LIBERTY FLURRIES 37 31 78 NW6 30.00R WCI 32 BRNX BOT. GARD N/A 36 32 87 NW3 30.01R TETERBORO CLOUDY 36 29 75 N6 29.99R WCI 31 $$ NYZ177-179-078>081-271500- LONG ISLAND NEW YORK CITY SKY/WX TMP DP RH WIND PRES REMARKS FARMINGDALE CLOUDY 38 29 70 NW8 29.99R WCI 32 ISLIP PTSUNNY 37 30 75 N10 29.96R WCI 30 SHIRLEY LGT RAIN 37 32 82 NW6 29.98R WCI 32 WESTHAMPTON LGT RAIN 38 33 82 NW7 29.98R WCI 33 MONTAUK POINT N/A 39 32 76 NW9 29.98R WCI 33 $$ NYZ052-065-067-271500- HUDSON VALLEY CITY SKY/WX TMP DP RH WIND PRES REMARKS WHITE PLAINS CLOUDY 33 27 78 N8 29.96R WCI 26 NEWBURGH CLOUDY 32 32 100 CALM 30.00R MONTGOMERY MIX PCPN 32 30 92 CALM 29.98R POUGHKEEPSIE CLOUDY 30 28 92 CALM 30.00R ALBANY CLOUDY 31 26 82 NW8 30.01R WCI 23 $$ NJZ001-105-106-008-010-013-015-019>022-104-271500- NEW JERSEY CITY SKY/WX TMP DP RH WIND PRES REMARKS NEWARK/LIBERTY FLURRIES 37 31 78 NW6 30.00R WCI 32 TETERBORO CLOUDY 36 29 75 N6 29.99R WCI 31 CALDWELL FLURRIES 35 29 78 CALM 30.00R MORRISTOWN NOT AVBL SOMERVILLE CLOUDY 35 31 85 W3 29.99R SUSSEX LGT SNOW 33 31 92 CALM 29.98R FOG ANDOVER N/A 32 29 88 N3 29.98R TRENTON CLOUDY 34 30 85 NW5 30.00R FOG WCI 30 MILLVILLE PTSUNNY 36 33 89 W7 30.03R WCI 30 ATLANTIC CITY PTSUNNY 37 34 89 W8 30.02S WCI 31 WRIGHTSTOWN CLOUDY 36 32 86 NW5 29.99S WCI 32 TOMS RIVER CLOUDY 36 34 93 CALM 30.02R BELMAR CLOUDY 36 28 75 W7 30.00R WCI 30 $$ PAZ047>061-062-071-271500- EASTERN PENNSYLVANIA CITY SKY/WX TMP DP RH WIND PRES REMARKS PHILADELPHIA PTSUNNY 37 30 75 NW7 30.04R WCI 32 ALLENTOWN LGT SNOW 33 29 85 W7 30.00S FOG WCI 27 SCRANTON LGT SNOW 30 26 85 W8 29.99R VSB 3/4 WCI 22 $$ CTZ002-004>006-009-010-012-RIZ004-006-007-MAZ004-011-015-271500- SOUTHERN NEW ENGLAND IN CT CITY SKY/WX TMP DP RH WIND PRES REMARKS BRADLEY INTL PTSUNNY 33 27 78 CALM 29.96R HARTFORD CLOUDY 34 28 79 VRB5 29.97R WCI 30 DANBURY CLOUDY 32 24 72 NE6 29.98R WCI 26 WTRBRY/OXFORD CLOUDY 30 23 74 NW6 29.97R WCI 24 BRIDGEPORT CLOUDY 35 29 78 NW12 29.98R WCI 27 MERIDEN CLOUDY 33 26 75 NW3 29.98R NEW HAVEN CLOUDY 37 29 72 NW8 29.98R WCI 31 CHESTER LGT RAIN 32 30 93 NW3 29.96R GROTON CLOUDY 35 31 85 NW8 29.97R WCI 29 WILLIMANTIC CLOUDY 34 29 82 W5 29.96R WCI 30 IN RI CITY SKY/WX TMP DP RH WIND PRES REMARKS PROVIDENCE PTSUNNY 35 30 82 W8 29.95R WCI 29 BLOCK ISLAND CLOUDY 39 30 70 NW8 29.95R WCI 34 WESTERLY CLOUDY 35 31 85 W3 29.97R IN MA CITY SKY/WX TMP DP RH WIND PRES REMARKS BOSTON PTSUNNY 35 30 82 NW9 29.93R WCI 28 WORCESTER CLOUDY 30 27 88 W14 29.89R WCI 19 WESTFIELD PTSUNNY 33 26 75 NW5 29.95R WCI 29 PROVINCETOWN CLOUDY 39 30 70 N12 29.89R WCI 32 NANTUCKET PTSUNNY 41 35 79 NW13 29.92R $$ ANZ330-335-338-340-345-350-353-355-271500- COASTAL MARINE OBSERVATIONS STATION/POSITION TIME SKY/WX TEMP WIND PRES VSBY WAVE AIR SEA DIR/SP/G HT/PER (UTC) (F) (DEG/KT/KT) (MB) (MI) (FT/S) NY HARB ENTRANCE 1400 40 54 310/ 8/ 12 1015.8 5/ 9 4S FIRE IS 1400 52 N/A 5/11 20S FIRE ISLAND 1400 41 54 320/ 8/ 12 1015.3 6/10 23SW MTP 1400 N/A 7/11 HUDSON CANYON 1400 45 58 290/ 14/ 17 1014.5 8/ 9 EXECUTION ROCKS 1400 38 47 340/ 10/ 14 N/A WESTERN LI SOUND 1400 36 350/ 10/ 14 N/A 0 CENTRAL LI SOUND 1300 36 50 300/ 10/ 14 N/A 2/ 3 EASTERN LI SOUND 1300 38 52 300/ 10/ 14 N/A ROBBINS REEF 1400 36 320/ 7/ 8 1014.6 $$ >>>>>>>>>>>>>>>>>>>>>>>>>>>> KEY <<<<<<<<<<<<<<<<<<<<<<<<<<< > < > SKY/WX - SKY CONDITION/PRESENT WEATHER < > TMP - TEMPERATURE IN FAHRENHEIT < > DP - DEWPOINT IN FAHRENHEIT < > RH - RELATIVE HUMIDITY IN PERCENT < > WIND - DIRECTION AND SPEED IN MPH < > PRES - MEAN SEA LEVEL PRESSURE IN INCHES OF HG < > WCI - WIND CHILL INDEX < > VSB - VISIBILITY IN MILES < > HX - HEAT INDEX < > TC - TEMPERATURE IN CELSIUS < > VRB - VARIABLE WIND DIRECTION < > < >>>>>>>>>>>>>>>>>>>>>>>>>>>> KEY <<<<<<<<<<<<<<<<<<<<<<<<<<<

USA.gov is the U.S. government's official web portal to all federal, state and local government web resources and services.